Hourly Data Report for July 13, 2021

TORONTO CITY
ONTARIO
Current Station Operator: ECCC - MSC

43°40'00.000" N
79°24'00.000" W
112.50 m
6158355
71508
XTO

Download Data

Hourly Data (July 2021)
Hourly Data Report for July 13, 2021
TIME
LST
Temp Definition
°C
Dew Point Definition
°C
Rel Hum Definition
%
Precip. Amount Definition
mm

Wind Dir Definition
10's deg

Wind Spd Definition
km/h
Visibility Definition
km
Stn Press Definition
kPa
Hmdx Definition


Wind Chill Definition


Weather Definition


00:00 20.8 18.5 87 0.0       100.58 27   LegendNANA
01:00 20.8 18.8 88 0.0       100.56 27   LegendNANA
02:00 20.7 19.0 90 0.0       100.54 27   LegendNANA
03:00 20.5 19.0 91 0.0       100.53 27   LegendNANA
04:00 20.5 19.2 92 0.0       100.54 27   LegendNANA
05:00 20.6 19.4 93 0.0       100.55 28   LegendNANA
06:00 20.7 19.5 93 0.0       100.57 28   LegendNANA
07:00 21.3 19.9 91 0.0       100.56 29   LegendNANA
08:00 21.8 20.1 90 0.0       100.52 29   LegendNANA
09:00 23.0 20.7 87 0.0       100.54 31   LegendNANA
10:00 24.3 20.6 80 0.0       100.54 32   LegendNANA
11:00 24.0 20.4 80 0.0       100.51 32   LegendNANA
12:00 26.5 21.6 74 0.0       100.45 35   LegendNANA
13:00 26.6 21.9 75 0.0       100.37 36   LegendNANA
14:00 23.8 22.1 90 5.5       100.31 33   LegendNANA
15:00 25.8 22.0 80 0.0       100.26 35   LegendNANA
16:00 25.0 21.5 81 0.0       100.30 34   LegendNANA
17:00 25.6 21.0 76 0.0       100.26 34   LegendNANA
18:00 24.7 21.3 81 0.2       100.21 33   LegendNANA
19:00 24.2 20.1 78 0.0       100.22 32   LegendNANA
20:00 23.1 20.1 83 0.0       100.23 31   LegendNANA
21:00 22.4 20.1 87 0.0       100.21 30   LegendNANA
22:00 21.8 19.9 89 0.0       100.21 29   LegendNANA
23:00 21.7 20.1 91 0.0       100.25 29   LegendNANA

Notes on Data Quality.

Legend

  • E = Estimated
  • M = Missing
  • NA = Not Available*
  • [empty] = Indicates an unobserved value
Date modified: